www.pogodaiklimat.ru

Погода и климат >> Архив погоды >> Финляндия >> Логнес Харбор


ПОГОДА в Логнес Харбор

  • Прогноз погоды в Логнес Харбор
  • Монитор погоды в Логнес Харбор

АРХИВ ПОГОДЫ в Логнес Харбор

Время (UTC), дата Ветер
(напр.,м/с)
 
Видим.   Явления Облачность Т
(С)
Тd
(С)
f
(%)
Тe
(С)
Тes
(С)
Комфортность P
(гПа)
Po
(гПа)
Тmin
(С)
Tmax
(С)
R
(мм)
R24
(мм)
S
(см)
18 16.08 Ю 9 н/о н/о +17.9 +15.3 85 +17 +17 1011.3 1009.8 +17.5 +19.6 0.1
21 16.08 Ю 7 н/о н/о +17.8 +16.4 92 +17 +17 1011.3 1009.8
00 17.08 Ю 5 н/о н/о +17.3 +16.6 96 +17 +17 1011.1 1009.6
03 17.08 Ю 5 н/о н/о +17.3 +15.9 91 +17 +17 1010.5 1009.0
06 17.08 Ю 5 н/о н/о +18.0 +16.6 92 +18 +18 1010.2 1008.7 +17.1 +18.0
09 17.08 Ю 5 н/о н/о +19.5 +14.4 72 +21 +21 комфорт 1011.4 1009.9
12 17.08 Ю 7 н/о н/о +19.8 +16.0 79 +22 +22 комфорт 1011.4 1009.9
15 17.08 Ю 8 н/о н/о +18.4 +16.1 86 +18 +18 1010.7 1009.3
18 17.08 Ю 8 н/о н/о +17.5 +15.9 90 +16 +16 1010.9 1009.4 +17.5 +20.2
21 17.08 Ю 10 н/о н/о +17.7 +16.2 91 +16 +16 1009.9 1008.5
00 18.08 Ю 9 н/о н/о +17.4 +15.8 90 +16 +16 1009.2 1007.8
03 18.08 Ю 9 н/о н/о +17.2 +15.0 87 +16 +16 1008.3 1006.8
06 18.08 ЮЗ 7 н/о н/о +15.9 +15.3 96 +14 +14 1008.1 1006.6 +15.8 +17.8 2
09 18.08 Ю 11 н/о н/о +17.9 +15.0 83 +17 +17 1007.8 1006.3
12 18.08 Ю 9 н/о н/о +17.9 +16.1 89 +17 +17 1007.6 1006.1
15 18.08 Ю 9 н/о н/о +18.5 +16.2 86 +18 +18 1006.4 1005.0
18 18.08 Ю 9 н/о н/о +18.3 +16.4 89 +18 +18 1005.6 1004.1 +15.9 +19.0 2
21 18.08 Ю 9 н/о н/о +17.4 +17.0 97 +16 +16 1004.3 1002.8
00 19.08 Ю 9 н/о н/о +16.8 +16.3 97 +15 +15 1001.9 1000.4
03 19.08 Ю 11 н/о н/о +17.2 +16.8 97 +16 +16 1000.1 998.6
06 19.08 З 4 н/о н/о +15.7 +14.3 91 +15 +15 1002.9 1001.4 +14.6 +18.3 25
09 19.08 ЮЗ 5 н/о н/о +17.8 +13.1 74 +17 +17 1005.1 1003.6
12 19.08 ЮЗ 5 н/о н/о +19.5 +12.0 62 +21 +21 комфорт 1007.5 1006.1
15 19.08 ЮЗ 6 н/о н/о +19.5 +12.8 65 +21 +21 комфорт 1009.1 1007.7
18 19.08 ЮЗ 4 н/о н/о +17.4 +13.0 75 +17 +17 1010.3 1008.8 +15.7 +20.4
21 19.08 ЮЗ 4 н/о н/о +17.2 +14.6 85 +17 +17 1011.1 1009.6
00 20.08 ЮЗ 3 н/о н/о +15.6 +14.5 93 +15 +15 1011.7 1010.2
03 20.08 ЮЗ 3 н/о н/о +14.6 +12.0 84 +14 +14 1013.2 1011.7
06 20.08 ЮЗ 4 н/о н/о +17.0 +12.7 76 +17 +17 1014.6 1013.1 +14.2 +17.4
09 20.08 ЮЗ 5 н/о н/о +19.1 +13.4 70 +20 +20 1015.7 1014.2
12 20.08 ЮЗ 7 н/о н/о +19.5 +13.7 69 +21 +21 комфорт 1016.5 1015.0
15 20.08 ЮЗ 5 н/о н/о +18.7 +13.9 74 +19 +19 1017.0 1015.5
18 20.08 ЮЗ 5 н/о н/о +17.2 +14.2 83 +17 +17 1017.4 1015.9 +17.0 +19.8
21 20.08 ЮЗ 3 н/о н/о +16.4 +13.8 85 +16 +16 1018.0 1016.5
00 21.08 ЮЗ 2 н/о н/о +14.0 +13.3 96 +13 +13 1019.1 1017.6
03 21.08 ЮЗ 3 н/о н/о +14.2 +13.9 98 +13 +13 1019.9 1018.4
06 21.08 З 2 н/о н/о +16.2 +12.8 80 +16 +16 1020.5 1019.0 +13.1 +17.3
09 21.08 ЮЗ 4 н/о н/о +19.5 +10.6 56 +21 +21 комфорт 1020.7 1019.2
12 21.08 Ю 6 н/о н/о +19.4 +12.9 66 +20 +20 1020.2 1018.7
15 21.08 ЮЗ 4 н/о н/о +19.2 +11.7 62 +20 +20 1019.8 1018.4
18 21.08 З 2 н/о н/о +16.8 +13.1 79 +17 +17 1020.1 1018.6 +16.2 +20.3
21 21.08 З 3 н/о н/о +14.7 +12.2 85 +14 +14 1020.6 1019.1
00 22.08 З 3 н/о н/о +14.1 +11.6 85 +13 +13 1021.0 1019.5
03 22.08 СЗ 4 н/о н/о +13.5 +12.3 92 +12 +12 1021.8 1020.2
06 22.08 З 4 н/о н/о +15.9 +13.1 83 +15 +15 1022.8 1021.3 +12.9 +16.8 0.1
09 22.08 З 2 н/о н/о +19.3 +11.1 59 +21 +21 комфорт 1023.5 1022.0
12 22.08 ЮЗ 4 н/о н/о +19.4 +11.6 61 +21 +21 комфорт 1023.8 1022.3
15 22.08 ЮЗ 5 н/о н/о +18.5 +11.8 65 +19 +19 1023.4 1021.9
18 22.08 ЮЗ 4 н/о н/о +17.0 +13.4 79 +17 +17 1022.6 1021.1 +15.9 +20.4
21 22.08 З 2 н/о н/о +15.1 +14.2 94 +15 +15 1022.9 1021.4
00 23.08 ЮЗ 2 н/о н/о +13.9 +13.3 96 +13 +13 1021.9 1020.4
03 23.08 ЮЗ 3 н/о н/о +15.2 +13.5 90 +14 +14 1020.2 1018.7
06 23.08 ЮЗ 5 н/о н/о +16.6 +12.7 78 +16 +16 1019.7 1018.2 +13.3 +17.3 2
09 23.08 ЮЗ 5 н/о н/о +17.8 +13.1 74 +17 +17 1019.5 1018.0
12 23.08 ЮЗ 5 н/о н/о +16.9 +13.2 79 +16 +16 1018.0 1016.5

 

Местоположение метеостанции Логнес Харбор (Финляндия): широта 60.12 долгота 20.30 высота над уровнем моря 13 м.

В архиве по умолчанию представлена погода в Логнес Харбор за последнюю неделю. Архивные данные за месяц целиком и за предыдущие месяцы, начиная с января 2011 года, Вы можете получить, выбрав интересующий диапазон дат из раскрывающегося списка и нажав кнопку "Ввод!".


*Определитесь, кто Вы:
робот инопланетянин человек

Внимание! Время в таблицах - всемирное. Для получения местного времени необходимо прибавить поправку, которая равна 1 ч.

Смотрите также архив погоды в соседних городах и на ближайших метеорологических станциях:

Погода в Йомале (Финляндия) (18 км)
Погода в Йомала аэропорту (Финляндия) (22 км)
Погода в Лемланд Нихамн (Финляндия) (26 км)
Погода в Кумлинге (Финляндия) (29 км)
Погода в Содерарме (Швеция) (64 км)
Погода на Хаммарланде (Финляндия) (68 км)
Погода в Кокар Богскар (Финляндия) (68 км)
Погода на Острове Уто (Финляндия) (71 км)
Погода на Острове Фагерхольм (Финляндия) (78 км)
Погода в Кустави Исокари (Финляндия) (78 км)

Пояснения к столбцам:

Ветер - указаны скорость ветра в м/с - средняя за 10 мин, порывы в срок и между сроками (в фигурных скобках) и направление, откуда дует ветер: С - северный, СВ - северо-восточный, В - восточный, ЮВ - юго-восточный, Ю - южный, ЮЗ - юго-западный, З - западный, СЗ - северо-западный.
Видимость - горизонтальная дальность видимости в метрах или километрах. При видимости от 1 до 10 км при отсутствии осадков обычно наблюдается дымка, при ухудшении видимости до 1 км и менее - туман. В сухую погоду видимость может ухудшаться дымом, пылью или мглою.
Явления - указаны атмосферные явления, наблюдавшиеся в срок или в последний час перед сроком; фигурными скобками обозначены явления, наблюдавшиеся между сроками (за 1-3 часа до срока); квадратными скобками обозначены град или гололедные отложения с указанием их диаметра в мм.
Облачность - указаны через наклонную черту общая и нижняя облачность в баллах и высота нижней границы облаков в метрах; квадратными скобками обозначены формы облаков: Ci - перистые, Cs - перисто-слоистые, Cc - перисто-кучевые, Ac - высококучевые, As - высокослоистые, Sc - слоисто-кучевые, Ns - слоисто-дождевые, Cu - кучевые, Cb - кучево-дождевые. Подробнее классификацию облаков см. в Атласе облаков (PDF).
T - Температура воздуха - температура, измеренная на высоте 2 м над землей.
Td - Температура точки росы - температура, при понижении до которой содержащийся в воздухе водяной пар достигнет насыщения.
f - Относительная влажность воздуха - влажноcть воздуха, измеренная на высоте 2 м над землей.
Te - Эффективная температура - температура, которую ощущает одетый по сезону человек в тени. Характеристика душности погоды. При расчете учитывается влияние влажности воздуха и скорости ветра на теплоощущения человека.
Tes - Эффективная температура на солнце - температура, которую ощущает человек, с поправкой на солнечный нагрев. Характеристика знойности погоды. Зависит от высоты солнца над горизонтом, облачности и скорости ветра. Ночью, в пасмурную погоду, а также при ветре 12 м/с и более поправка равна нулю.
P - Атмосферное давление - приведенное к уровню моря атмосферное давление.
Po - Атмосферное давление - измеренное на уровне метеостанции атмосферное давление.
Tmin - Минимальная температура - минимум температуры воздуха на высоте 2 м над землей.
Tmax - Максимальная температура - максимум температуры воздуха на высоте 2 м над землей.
R - Количество осадков - Количество выпавших осадков за период времени, мм. При наведении курсора мыши на число - период времени, за который выпало указанное количество осадков.
R24 - Количество осадков - Количество выпавших осадков за 24 часа, мм.
S - Снежный покров - Высота снежного покрова, см. При наведении курсора мыши на число - состояние снежного покрова и степень покрытия местности в баллах.